IR1ZYZ-3 Weather Reports


Display with metric or nautical units.
time (UTC)temp
F
wind
direction
speed
MPH
gust
MPH
rain 1hr
in
rain 24hr
in
rain mn
in
humidity
%
barometer
mb
20260508005555 52 0.0 0.0 0.00 0.00 0.00 10 1015.0
20260508004551 52 0.0 0.0 0.00 0.00 0.00 10 1015.1
20260508003546 52 0.0 0.0 0.00 0.00 0.00 10 1015.3
20260508002542 52 0.0 0.0 0.00 0.00 0.00 10 1015.4
20260508001537 52 0.0 0.0 0.00 0.00 0.00 10 1015.5
20260508000532 52 0.0 0.0 0.00 0.00 0.00 10 1015.7
20260507235528 52 0.0 0.0 0.00 0.00 0.00 10 1015.8
20260507234523 52 0.0 0.0 0.00 0.00 0.00 10 1015.9
20260507233519 52 0.0 0.0 0.00 0.00 0.00 10 1015.8
20260507232514 52 0.0 0.0 0.00 0.00 0.00 10 1015.8
20260507231509 52 0.0 0.0 0.00 0.00 0.00 10 1016.0
20260507230505 52 0.0 0.0 0.00 0.00 0.00 10 1016.0
20260507225500 52 0.0 0.0 0.00 0.00 0.00 10 1016.1
20260507224456 52 0.0 0.0 0.00 0.00 0.00 10 1016.2
20260507223451 52 0.0 0.0 0.00 0.00 0.00 10 1016.3
20260507222446 52 0.0 0.0 0.00 0.00 0.00 10 1016.3
20260507221442 52 0.0 0.0 0.00 0.00 0.00 10 1016.3
20260507220437 53 0.0 0.0 0.00 0.00 0.00 10 1016.2
20260507215432 53 0.0 0.0 0.00 0.00 0.00 10 1016.1
20260507214428 53 0.0 0.0 0.00 0.00 0.00 10 1016.1
20260507213423 53 0.0 0.0 0.00 0.00 0.00 10 1016.0
20260507212418 53 0.0 0.0 0.00 0.00 0.00 10 1016.0
20260507211413 53 0.0 0.0 0.00 0.00 0.00 10 1015.9
20260507210407 53 0.0 0.0 0.00 0.00 0.00 10 1016.0
20260507205402 53 0.0 0.0 0.00 0.00 0.00 10 1015.8
20260507204357 53 0.0 0.0 0.00 0.00 0.00 10 1015.8
20260507203352 53 0.0 0.0 0.00 0.00 0.00 10 1015.7
20260507202346 53 0.0 0.0 0.00 0.00 0.00 10 1015.8
20260507201341 54 0.0 0.0 0.00 0.00 0.00 10 1015.9
20260507200336 54 0.0 0.0 0.00 0.00 0.00 10 1015.8
20260507195331 54 0.0 0.0 0.00 0.00 0.00 10 1015.7
20260507194326 54 0.0 0.0 0.00 0.00 0.00 10 1015.7
20260507193320 54 0.0 0.0 0.00 0.00 0.00 10 1015.6
20260507192315 54 0.0 0.0 0.00 0.00 0.00 10 1015.4
20260507191310 54 0.0 0.0 0.00 0.00 0.00 10 1015.3
20260507190304 55 0.0 0.0 0.00 0.00 0.00 10 1015.2
20260507185259 55 0.0 0.0 0.00 0.00 0.00 10 1015.1
20260507184254 55 0.0 0.0 0.00 0.00 0.00 10 1015.1
20260507183248 55 0.0 0.0 0.00 0.00 0.00 10 1015.0
20260507182243 56 0.0 0.0 0.00 0.00 0.00 10 1014.9
20260507181238 57 0.0 0.0 0.00 0.00 0.00 10 1014.9
20260507180234 58 0.0 0.0 0.00 0.00 0.00 10 1014.8
20260507175228 59 0.0 0.0 0.00 0.00 0.00 10 1014.5
20260507174223 59 0.0 0.0 0.00 0.00 0.00 10 1014.5
20260507173218 59 0.0 0.0 0.00 0.00 0.00 10 1014.5
20260507172213 58 0.0 0.0 0.00 0.00 0.00 10 1014.5
20260507171208 58 0.0 0.0 0.00 0.00 0.00 10 1014.6
20260507170203 60 0.0 0.0 0.00 0.00 0.00 10 1014.6
20260507165158 64 0.0 0.0 0.00 0.00 0.00 85 1014.4
20260507164153 68 0.0 0.0 0.00 0.00 0.00 76 1014.1
20260507163148 71 0.0 0.0 0.00 0.00 0.00 73 1013.8
20260507162143 74 0.0 0.0 0.00 0.00 0.00 63 1013.6
20260507161138 74 0.0 0.0 0.00 0.00 0.00 68 1013.5
20260507160133 71 0.0 0.0 0.00 0.00 0.00 68 1013.8
20260507155127 72 0.0 0.0 0.00 0.00 0.00 70 1013.5
20260507154122 75 0.0 0.0 0.00 0.00 0.00 58 1013.3
20260507153117 73 0.0 0.0 0.00 0.00 0.00 62 1013.5
20260507152112 77 0.0 0.0 0.00 0.00 0.00 55 1013.1
20260507151106 77 0.0 0.0 0.00 0.00 0.00 52 1013.2
20260507145056 78 0.0 0.0 0.00 0.00 0.00 51 1013.2
20260507143045 80 0.0 0.0 0.00 0.00 0.00 55 1013.1
20260507142039 78 0.0 0.0 0.00 0.00 0.00 50 1013.4
20260507141034 81 0.0 0.0 0.00 0.00 0.00 50 1013.2
20260507140029 79 0.0 0.0 0.00 0.00 0.00 50 1013.4
20260507135024 82 0.0 0.0 0.00 0.00 0.00 47 1013.3
20260507134018 79 0.0 0.0 0.00 0.00 0.00 54 1013.5
20260507133013 79 0.0 0.0 0.00 0.00 0.00 59 1013.7
20260507132008 74 0.0 0.0 0.00 0.00 0.00 56 1014.2
20260507131002 80 0.0 0.0 0.00 0.00 0.00 56 1013.8
20260507125958 72 0.0 0.0 0.00 0.00 0.00 65 1014.3
20260507124952 81 0.0 0.0 0.00 0.00 0.00 53 1013.6
20260507123947 83 0.0 0.0 0.00 0.00 0.00 53 1013.5
20260507122942 81 0.0 0.0 0.00 0.00 0.00 55 1013.5
20260507121936 83 0.0 0.0 0.00 0.00 0.00 61 1013.3
20260507120931 81 0.0 0.0 0.00 0.00 0.00 58 1013.3
20260507115926 79 0.0 0.0 0.00 0.00 0.00 62 1013.5
20260507114921 78 0.0 0.0 0.00 0.00 0.00 62 1013.5
20260507113916 79 0.0 0.0 0.00 0.00 0.00 62 1013.5
20260507112911 80 0.0 0.0 0.00 0.00 0.00 66 1013.4
20260507111905 78 0.0 0.0 0.00 0.00 0.00 70 1013.8
20260507110900 77 0.0 0.0 0.00 0.00 0.00 73 1013.9
20260507110859 77 0.0 0.0 0.00 0.00 0.00 73 1013.9
20260507105854 77 0.0 0.0 0.00 0.00 0.00 70 1013.8
20260507104849 76 0.0 0.0 0.00 0.00 0.00 74 1013.9
20260507103844 76 0.0 0.0 0.00 0.00 0.00 75 1014.1
20260507102839 73 0.0 0.0 0.00 0.00 0.00 77 1014.1
20260507101833 73 0.0 0.0 0.00 0.00 0.00 85 1014.1
20260507100828 72 0.0 0.0 0.00 0.00 0.00 84 1014.2
20260507095823 71 0.0 0.0 0.00 0.00 0.00 84 1014.4
20260507093812 70 0.0 0.0 0.00 0.00 0.00 99 1014.3
20260507092807 70 0.0 0.0 0.00 0.00 0.00 94 1014.2
20260507091802 69 0.0 0.0 0.00 0.00 0.00 98 1014.3
20260507090757 69 0.0 0.0 0.00 0.00 0.00 10 1014.2
20260507085752 67 0.0 0.0 0.00 0.00 0.00 10 1014.2
20260507084747 68 0.0 0.0 0.00 0.00 0.00 10 1014.0
20260507083742 67 0.0 0.0 0.00 0.00 0.00 10 1013.9
20260507082737 66 0.0 0.0 0.00 0.00 0.00 10 1013.8
20260507081731 65 0.0 0.0 0.00 0.00 0.00 10 1013.9
20260507080726 64 0.0 0.0 0.00 0.00 0.00 10 1013.9
20260507075721 63 0.0 0.0 0.00 0.00 0.00 10 1014.0
20260507074716 62 0.0 0.0 0.00 0.00 0.00 10 1014.1
20260507073710 61 0.0 0.0 0.00 0.00 0.00 10 1014.1
20260507072705 60 0.0 0.0 0.00 0.00 0.00 10 1014.2
20260507070654 58 0.0 0.0 0.00 0.00 0.00 10 1014.2
20260507065649 57 0.0 0.0 0.00 0.00 0.00 10 1014.1
20260507064644 56 0.0 0.0 0.00 0.00 0.00 10 1014.1
20260507063639 55 0.0 0.0 0.00 0.00 0.00 10 1014.1
20260507062633 55 0.0 0.0 0.00 0.00 0.00 10 1014.0
20260507061628 54 0.0 0.0 0.00 0.00 0.00 10 1014.0
20260507060623 54 0.0 0.0 0.00 0.00 0.00 10 1013.9
20260507055617 53 0.0 0.0 0.00 0.00 0.00 10 1013.9
20260507054612 52 0.0 0.0 0.00 0.00 0.00 10 1013.7
20260507053607 51 0.0 0.0 0.00 0.00 0.00 10 1013.8
20260507052601 51 0.0 0.0 0.00 0.00 0.00 10 1013.6
20260507051556 51 0.0 0.0 0.00 0.00 0.00 10 1013.5
20260507050551 51 0.0 0.0 0.00 0.00 0.00 10 1013.4
20260507045546 50 0.0 0.0 0.00 0.00 0.00 10 1013.3
20260507044541 50 0.0 0.0 0.00 0.00 0.00 10 1013.3
20260507043535 49 0.0 0.0 0.00 0.00 0.00 10 1013.3
20260507042530 49 0.0 0.0 0.00 0.00 0.00 10 1013.2
20260507041525 50 0.0 0.0 0.00 0.00 0.00 10 1013.3
20260507040519 49 0.0 0.0 0.00 0.00 0.00 10 1013.3
20260507035514 50 0.0 0.0 0.00 0.00 0.00 10 1013.2
20260507034509 49 0.0 0.0 0.00 0.00 0.00 10 1013.1
20260507033504 50 0.0 0.0 0.00 0.00 0.00 10 1013.0
20260507032459 50 0.0 0.0 0.00 0.00 0.00 10 1012.8
20260507031453 50 0.0 0.0 0.00 0.00 0.00 10 1012.8
20260507030448 52 0.0 0.0 0.00 0.00 0.00 10 1012.9
20260507025443 50 0.0 0.0 0.00 0.00 0.00 10 1012.9
20260507024438 50 0.0 0.0 0.00 0.00 0.00 10 1012.9
20260507023432 50 0.0 0.0 0.00 0.00 0.00 10 1012.8
20260507022427 50 0.0 0.0 0.00 0.00 0.00 10 1012.7
20260507021422 50 0.0 0.0 0.00 0.00 0.00 10 1012.8
20260507020416 50 0.0 0.0 0.00 0.00 0.00 10 1012.5
20260507015411 51 0.0 0.0 0.00 0.00 0.00 10 1012.4
20260507014407 51 0.0 0.0 0.00 0.00 0.00 10 1012.4
20260507013402 51 0.0 0.0 0.00 0.00 0.00 10 1012.2
20260507012356 51 0.0 0.0 0.00 0.00 0.00 10 1012.2
20260507011350 51 0.0 0.0 0.00 0.00 0.00 10 1012.1
20260507010345 52 0.0 0.0 0.00 0.00 0.00 10 1012.3